WetterOnline ( https://www.wetteronline.de )

Wetter aktuell Asbach

Aktuelles Wetter: Königswinter-Heiderhof (147m)

6-stündlich | Neueste Meldungen
Ortszeit Temperatur Wetter
Mo, 18.10. 20:00 9.9° C bewölkt
Mo, 18.10. 14:00 11.4° C wolkig
Mo, 18.10. 8:00 4.5° C fast wolkenlos
Mo, 18.10. 2:00 6.7° C wolkenlos
So, 17.10. 20:00 9.5° C bedeckt
So, 17.10. 14:00 13.2° C bewölkt
So, 17.10. 8:00 4.0° C bewölkt
So, 17.10. 2:00 6.1° C bewölkt
Ortszeit Temperatur Wetter
Di, 19.10. 1:00 9.5° C bedeckt
Di, 19.10. 0:50 9.5° C bedeckt
Di, 19.10. 0:40 9.2° C bedeckt
Di, 19.10. 0:30 9.2° C bedeckt
Di, 19.10. 0:20 9.2° C bedeckt
Di, 19.10. 0:10 9.0° C bedeckt
Di, 19.10. 0:00 9.3° C wolkig
Mo, 18.10. 23:30 9.0° C bedeckt
Mo, 18.10. 23:00 9.5° C bewölkt
Mo, 18.10. 22:30 9.6° C leicht bewölkt
Mo, 18.10. 22:00 9.3° C wolkig
Ortszeit Relative Feuchte Sichtweite
Mo, 18.10. 20:00 84% 24 km
Mo, 18.10. 14:00 77% 21 km
Mo, 18.10. 8:00 96% 17 km
Mo, 18.10. 2:00 85% 50 km
So, 17.10. 20:00 69% 50 km
So, 17.10. 14:00 53% 65 km
So, 17.10. 8:00 97% 24 km
So, 17.10. 2:00 90% 30 km
Ortszeit Relative Feuchte Sichtweite
Di, 19.10. 1:00 87% 21 km
Di, 19.10. 0:50 87% -
Di, 19.10. 0:40 89% -
Di, 19.10. 0:30 88% 17 km
Di, 19.10. 0:20 88% -
Di, 19.10. 0:10 90% -
Di, 19.10. 0:00 87% 17 km
Mo, 18.10. 23:30 88% 14 km
Mo, 18.10. 23:00 86% 19 km
Mo, 18.10. 22:30 85% 21 km
Mo, 18.10. 22:00 86% 22 km
Ortszeit Niederschlagsmenge Niederschlagsart
Mo, 18.10. 20:00 0.0 l/m2 in 12 Std. -
Mo, 18.10. 14:00 0.0 l/m2 in 6 Std. -
Mo, 18.10. 8:00 0.0 l/m2 in 12 Std. -
Mo, 18.10. 2:00 0.0 l/m2 in 6 Std. -
So, 17.10. 20:00 0.0 l/m2 in 12 Std. -
So, 17.10. 14:00 0.0 l/m2 in 6 Std. -
So, 17.10. 8:00 0.0 l/m2 in 12 Std. -
So, 17.10. 2:00 0.0 l/m2 in 6 Std. -
Ortszeit Niederschlagsmenge Niederschlagsart
Di, 19.10. 1:00 0.0 l/m2 in 1 Std. -
Di, 19.10. 0:50 keine Meldung -
Di, 19.10. 0:40 keine Meldung -
Di, 19.10. 0:30 0.0 l/m2 in 1 Std. -
Di, 19.10. 0:20 keine Meldung -
Di, 19.10. 0:10 keine Meldung -
Di, 19.10. 0:00 0.0 l/m2 in 1 Std. -
Mo, 18.10. 23:30 0.0 l/m2 in 1 Std. -
Mo, 18.10. 23:00 0.0 l/m2 in 1 Std. -
Mo, 18.10. 22:30 0.0 l/m2 in 1 Std. -
Mo, 18.10. 22:00 0.0 l/m2 in 1 Std. -
Ortszeit Stärke Spitze Richtung
km/h Bft. km/h Grad Sektor
Mo, 18.10. 20:00 4 1 29 10° N
Mo, 18.10. 14:00 19 3 30 110° O
Mo, 18.10. 8:00 4 1 11 80° O
Mo, 18.10. 2:00 2 1 7 240° SW
So, 17.10. 20:00 0 0 14 - -
So, 17.10. 14:00 7 2 14 220° SW
So, 17.10. 8:00 0 0 11 - -
So, 17.10. 2:00 6 1 11 180° S
Ortszeit Stärke Spitze Richtung
km/h Bft. km/h Grad Sektor
Di, 19.10. 1:00 4 1 11 170° S
Di, 19.10. 0:50 4 1 - 170° S
Di, 19.10. 0:40 4 1 - 90° O
Di, 19.10. 0:30 4 1 7 120° SO
Di, 19.10. 0:20 4 1 - 120° SO
Di, 19.10. 0:10 2 1 - 90° O
Di, 19.10. 0:00 0 0 7 - -
Mo, 18.10. 23:30 4 1 7 50° NO
Mo, 18.10. 23:00 4 1 11 100° O
Mo, 18.10. 22:30 4 1 11 110° O
Mo, 18.10. 22:00 4 1 11 120° SO
Ortszeit Untergrenze Bedeckung Gattung
total tief tief mittel hoch
Mo, 18.10. 20:00 6600 m 8/8 7/8 - - -
Mo, 18.10. 14:00 6600 m 8/8 3/8 - - -
Mo, 18.10. 8:00 10500 m 2/8 0/8 - - -
Mo, 18.10. 2:00 - 0/8 0/8 - - -
So, 17.10. 20:00 3600 m 8/8 8/8 - - -
So, 17.10. 14:00 6000 m 8/8 4/8 - - -
So, 17.10. 8:00 1500 m 7/8 6/8 - - -
So, 17.10. 2:00 1500 m 7/8 6/8 - - -
Ortszeit Bedeckungsgrad in Achtel und Wolkenuntergrenze
Di, 19.10. 1:00 8(4800m) 8(6900m) 8(7500m)
Di, 19.10. 0:50 8(4800m) 8(6900m) 8(7500m)
Di, 19.10. 0:40 8(4800m) 8(6900m) 8(7500m)
Di, 19.10. 0:30 6(5100m) 8(5700m) 8(7500m)
Di, 19.10. 0:20 6(5100m) 8(5700m) 8(7500m)
Di, 19.10. 0:10 8(5400m)
Di, 19.10. 0:00 1(2100m) 7(5700m) 8(6600m)
Mo, 18.10. 23:30 8(6600m) 8(7800m) 8(9000m)
Mo, 18.10. 23:00 7(6900m) 8(7800m)
Mo, 18.10. 22:30 1(8400m) 4(10500m) 6(10500m)
Mo, 18.10. 22:00 8(9000m) 8(10500m) 8(10500m)
Ortszeit Luftdruck NN (hPa) Tendenz (hPa in 3 Std.)
Mo, 18.10. 20:00 1023 + 0,6
Mo, 18.10. 14:00 1024 - 0,8
Mo, 18.10. 8:00 1024 + 0,5
Mo, 18.10. 2:00 1023 + 0,4
So, 17.10. 20:00 1022 + 0,8
So, 17.10. 14:00 1021 - 0,4
So, 17.10. 8:00 1022 + 0,2
So, 17.10. 2:00 1022 - 0,4
Ortszeit Luftdruck NN (hPa) Tendenz (hPa in 3 Std.)
Di, 19.10. 1:00 1022 - 0,5
Di, 19.10. 0:50 1022 keine Meldung
Di, 19.10. 0:40 1023 keine Meldung
Di, 19.10. 0:30 1023 - 0,5
Di, 19.10. 0:20 1023 keine Meldung
Di, 19.10. 0:10 1023 keine Meldung
Di, 19.10. 0:00 1023 - 0,3
Mo, 18.10. 23:30 1023 - 0,4
Mo, 18.10. 23:00 1023 - 0,3
Mo, 18.10. 22:30 1023 - 0,3
Mo, 18.10. 22:00 1023 - 0,2
Ortszeit Schneehöhe (cm)
Mo, 18.10. 20:00 0
Mo, 18.10. 14:00 0
Mo, 18.10. 8:00 0
Mo, 18.10. 2:00 0
So, 17.10. 20:00 0
So, 17.10. 14:00 0
So, 17.10. 8:00 0
So, 17.10. 2:00 0
Ortszeit Schneehöhe (cm)
Di, 19.10. 1:00 0
Di, 19.10. 0:50 0
Di, 19.10. 0:40 0
Di, 19.10. 0:30 0
Di, 19.10. 0:20 0
Di, 19.10. 0:10 0
Di, 19.10. 0:00 0
Mo, 18.10. 23:30 0
Mo, 18.10. 23:00 0
Mo, 18.10. 22:30 0
Mo, 18.10. 22:00 0
Link zu dieser Seite / Seite empfehlen

Das Wetter in ...